Location: Demre
(36.2444°N, 29.9850°E)
Time: 05:38:02
(UTC+00:00)

Intelsat 5-1 Rocket - Pass Details

Date: 11 March 2026
Orbit: 310 x 6757 km, 24.0° (Epoch: 20 April)

Event Time Altitude Azimuth Distance (km) Brightness Sun altitude
Rises 17:51:28 0° 256° (WSW) 4,605 7.6 -22.4°
Reaches altitude 10° 17:56:41 10° 238° (WSW) 2,586 5.8 -23.4°
Maximum altitude 17:59:57 15° 202° (SSW) 1,653 4.3 -24.1°
Enters shadow 18:00:27 15° 194° (SSW) 1,589 4.1 -24.1°
